Location: ????????
(55.4000°N, 39.1167°E)
Time: 07:21:53
(UTC+00:00)

IDEFIX/ARIANE 42P - Pass Details

Date: 19 May 2025
Orbit: 781 x 797 km, 98.6° (Epoch: 15 June)

Event Time Altitude Azimuth Distance (km) Brightness Sun altitude
Rises 23:07:12 0° 17° (NNE) 3,310 7.8 -11.3°
Reaches altitude 10° 23:09:33 10° 20° (NNE) 2,378 6.6 -11.1°
Maximum altitude 23:14:48 69° 104° (ESE) 857 2.8 -10.8°
Enters shadow 23:19:45 11° 187° (S) 2,263 4.4 -10.4°
